| time (UTC) | temp F | wind direction | speed MPH | gust MPH | rain 1hr in | rain 24hr in | rain mn in | humidity % | barometer mb |
| 20260508135330 | 63 | 207 | 6.0 | 13.0 | 0.00 | 0.00 | 0.00 | 29 | 1024.9 |
| 20260508134830 | 63 | 196 | 6.0 | 11.0 | 0.00 | 0.00 | 0.00 | 30 | 1024.9 |
| 20260508134330 | 63 | 196 | 6.0 | 11.0 | 0.00 | 0.00 | 0.00 | 28 | 1024.9 |
| 20260508133832 | 63 | 191 | 1.0 | 14.0 | 0.00 | 0.00 | 0.00 | 29 | 1024.9 |
| 20260508133333 | 63 | 182 | 5.0 | 14.0 | 0.00 | 0.00 | 0.00 | 28 | 1025.1 |
| 20260508132839 | 63 | 138 | 5.0 | 14.0 | 0.00 | 0.00 | 0.00 | 32 | 1025.0 |
| 20260508132328 | 63 | 200 | 6.0 | 11.0 | 0.00 | 0.00 | 0.00 | 27 | 1025.1 |
| 20260508131829 | 63 | 198 | 4.0 | 11.0 | 0.00 | 0.00 | 0.00 | 29 | 1025.0 |
| 20260508131329 | 63 | 134 | 6.0 | 11.0 | 0.00 | 0.00 | 0.00 | 28 | 1025.2 |
| 20260508130829 | 64 | 156 | 7.0 | 13.0 | 0.00 | 0.00 | 0.00 | 26 | 1025.1 |
| 20260508130328 | 64 | 160 | 6.0 | 13.0 | 0.00 | 0.00 | 0.00 | 28 | 1025.2 |
| 20260508125829 | 64 | 279 | 4.0 | 11.0 | 0.00 | 0.00 | 0.00 | 31 | 1025.2 |
| 20260508125328 | 63 | 193 | 4.0 | 11.0 | 0.00 | 0.00 | 0.00 | 29 | 1025.2 |
| 20260508124830 | 63 | 195 | 6.0 | 10.0 | 0.00 | 0.00 | 0.00 | 29 | 1025.2 |
| 20260508124330 | 63 | 130 | 7.0 | 12.0 | 0.00 | 0.00 | 0.00 | 32 | 1025.2 |
| 20260508123831 | 63 | 135 | 4.0 | 13.0 | 0.00 | 0.00 | 0.00 | 30 | 1025.2 |
| 20260508123339 | 63 | 121 | 7.0 | 15.0 | 0.00 | 0.00 | 0.00 | 32 | 1025.2 |
| 20260508122828 | 63 | 148 | 8.0 | 14.0 | 0.00 | 0.00 | 0.00 | 32 | 1025.2 |
| 20260508122328 | 63 | 134 | 8.0 | 16.0 | 0.00 | 0.00 | 0.00 | 28 | 1025.2 |
| 20260508121849 | 64 | 142 | 8.0 | 16.0 | 0.00 | 0.00 | 0.00 | 29 | 1025.2 |
| 20260508121329 | 63 | 189 | 5.0 | 13.0 | 0.00 | 0.00 | 0.00 | 30 | 1025.3 |
| 20260508120830 | 63 | 156 | 8.0 | 17.0 | 0.00 | 0.00 | 0.00 | 30 | 1025.3 |
| 20260508120339 | 64 | 157 | 8.0 | 15.0 | 0.00 | 0.00 | 0.00 | 30 | 1025.3 |
| 20260508115827 | 64 | 109 | 9.0 | 13.0 | 0.00 | 0.00 | 0.00 | 32 | 1025.3 |
| 20260508115336 | 63 | 110 | 6.0 | 12.0 | 0.00 | 0.00 | 0.00 | 31 | 1025.2 |
| 20260508114824 | 63 | 156 | 6.0 | 12.0 | 0.00 | 0.00 | 0.00 | 33 | 1025.2 |
| 20260508114353 | 63 | 159 | 6.0 | 14.0 | 0.00 | 0.00 | 0.00 | 34 | 1025.2 |
| 20260508113839 | 63 | 156 | 7.0 | 14.0 | 0.00 | 0.00 | 0.00 | 34 | 1025.1 |
| 20260508113328 | 63 | 95 | 6.0 | 16.0 | 0.00 | 0.00 | 0.00 | 33 | 1025.1 |
| 20260508112856 | 63 | 106 | 9.0 | 16.0 | 0.00 | 0.00 | 0.00 | 31 | 1025.1 |
| 20260508112324 | 63 | 149 | 8.0 | 16.0 | 0.00 | 0.00 | 0.00 | 31 | 1025.2 |
| 20260508111832 | 63 | 168 | 7.0 | 12.0 | 0.00 | 0.00 | 0.00 | 32 | 1025.2 |
| 20260508111359 | 63 | 180 | 5.0 | 13.0 | 0.00 | 0.00 | 0.00 | 32 | 1025.2 |
| 20260508110828 | 63 | 112 | 8.0 | 14.0 | 0.00 | 0.00 | 0.00 | 33 | 1025.2 |
| 20260508110330 | 63 | 95 | 8.0 | 14.0 | 0.00 | 0.00 | 0.00 | 34 | 1025.2 |
| 20260508105830 | 63 | 156 | 6.0 | 13.0 | 0.00 | 0.00 | 0.00 | 35 | 1025.2 |
| 20260508105330 | 63 | 148 | 8.0 | 14.0 | 0.00 | 0.00 | 0.00 | 32 | 1025.3 |
| 20260508104830 | 63 | 103 | 8.0 | 14.0 | 0.00 | 0.00 | 0.00 | 32 | 1025.2 |
| 20260508104330 | 63 | 167 | 7.0 | 13.0 | 0.00 | 0.00 | 0.00 | 37 | 1025.3 |
| 20260508103851 | 63 | 133 | 7.0 | 13.0 | 0.00 | 0.00 | 0.00 | 34 | 1025.2 |
| 20260508103351 | 63 | 129 | 7.0 | 14.0 | 0.00 | 0.00 | 0.00 | 34 | 1025.3 |
| 20260508102829 | 62 | 202 | 6.0 | 14.0 | 0.00 | 0.00 | 0.00 | 33 | 1025.3 |
| 20260508102330 | 63 | 157 | 7.0 | 17.0 | 0.00 | 0.00 | 0.00 | 33 | 1025.3 |
| 20260508101830 | 63 | 109 | 10.0 | 17.0 | 0.00 | 0.00 | 0.00 | 33 | 1025.2 |
| 20260508101330 | 63 | 181 | 9.0 | 15.0 | 0.00 | 0.00 | 0.00 | 34 | 1025.3 |
| 20260508100830 | 63 | 153 | 6.0 | 14.0 | 0.00 | 0.00 | 0.00 | 32 | 1025.3 |
| 20260508100331 | 63 | 144 | 7.0 | 14.0 | 0.00 | 0.00 | 0.00 | 33 | 1025.3 |
| 20260508095839 | 63 | 172 | 5.0 | 13.0 | 0.00 | 0.00 | 0.00 | 32 | 1025.3 |
| 20260508095329 | 62 | 132 | 6.0 | 13.0 | 0.00 | 0.00 | 0.00 | 35 | 1025.2 |
| 20260508094829 | 62 | 200 | 8.0 | 14.0 | 0.00 | 0.00 | 0.00 | 31 | 1025.3 |
| 20260508094330 | 62 | 123 | 6.0 | 10.0 | 0.00 | 0.00 | 0.00 | 31 | 1025.2 |
| 20260508093851 | 63 | 107 | 6.0 | 15.0 | 0.00 | 0.00 | 0.00 | 31 | 1025.3 |
| 20260508093331 | 63 | 154 | 10.0 | 14.0 | 0.00 | 0.00 | 0.00 | 28 | 1025.3 |
| 20260508092846 | 64 | 188 | 7.0 | 13.0 | 0.00 | 0.00 | 0.00 | 31 | 1025.3 |
| 20260508092325 | 63 | 161 | 6.0 | 14.0 | 0.00 | 0.00 | 0.00 | 31 | 1025.3 |
| 20260508091825 | 63 | 224 | 5.0 | 13.0 | 0.00 | 0.00 | 0.00 | 30 | 1025.2 |
| 20260508091324 | 62 | 142 | 6.0 | 14.0 | 0.00 | 0.00 | 0.00 | 30 | 1025.2 |
| 20260508090825 | 62 | 135 | 7.0 | 14.0 | 0.00 | 0.00 | 0.00 | 31 | 1025.2 |
| 20260508090346 | 63 | 136 | 8.0 | 13.0 | 0.00 | 0.00 | 0.00 | 30 | 1025.2 |
| 20260508085826 | 63 | 112 | 6.0 | 13.0 | 0.00 | 0.00 | 0.00 | 31 | 1025.2 |
| 20260508085327 | 63 | 202 | 7.0 | 12.0 | 0.00 | 0.00 | 0.00 | 29 | 1025.2 |
| 20260508084827 | 63 | 175 | 6.0 | 13.0 | 0.00 | 0.00 | 0.00 | 30 | 1025.3 |
| 20260508084327 | 63 | 195 | 6.0 | 13.0 | 0.00 | 0.00 | 0.00 | 28 | 1025.3 |
| 20260508083827 | 63 | 194 | 3.0 | 13.0 | 0.00 | 0.00 | 0.00 | 33 | 1025.3 |
| 20260508083329 | 62 | 198 | 8.0 | 13.0 | 0.00 | 0.00 | 0.00 | 29 | 1025.3 |
| 20260508082830 | 62 | 174 | 4.0 | 9.0 | 0.00 | 0.00 | 0.00 | 32 | 1025.2 |
| 20260508082329 | 62 | 181 | 7.0 | 10.0 | 0.00 | 0.00 | 0.00 | 35 | 1025.2 |
| 20260508081831 | 62 | 202 | 4.0 | 10.0 | 0.00 | 0.00 | 0.00 | 36 | 1025.1 |
| 20260508081352 | 62 | 151 | 8.0 | 11.0 | 0.00 | 0.00 | 0.00 | 36 | 1025.1 |
| 20260508080830 | 61 | 126 | 4.0 | 9.0 | 0.00 | 0.00 | 0.00 | 38 | 1025.1 |
| 20260508080330 | 61 | 178 | 5.0 | 14.0 | 0.00 | 0.00 | 0.00 | 34 | 1025.1 |
| 20260508075837 | 60 | 199 | 6.0 | 15.0 | 0.00 | 0.00 | 0.00 | 35 | 1025.1 |
| 20260508075325 | 60 | 182 | 5.0 | 15.0 | 0.00 | 0.00 | 0.00 | 37 | 1025.2 |
| 20260508074832 | 60 | 204 | 7.0 | 15.0 | 0.00 | 0.00 | 0.00 | 37 | 1025.2 |
| 20260508074353 | 60 | 152 | 6.0 | 11.0 | 0.00 | 0.00 | 0.00 | 38 | 1025.1 |
| 20260508073831 | 59 | 160 | 5.0 | 10.0 | 0.00 | 0.00 | 0.00 | 40 | 1025.0 |
| 20260508073400 | 59 | 194 | 5.0 | 13.0 | 0.00 | 0.00 | 0.00 | 41 | 1025.1 |
| 20260508072829 | 58 | 213 | 7.0 | 13.0 | 0.00 | 0.00 | 0.00 | 40 | 1025.0 |
| 20260508072330 | 58 | 179 | 6.0 | 13.0 | 0.00 | 0.00 | 0.00 | 42 | 1025.0 |
| 20260508071831 | 58 | 202 | 4.0 | 11.0 | 0.00 | 0.00 | 0.00 | 43 | 1024.9 |
| 20260508071331 | 57 | 134 | 5.0 | 11.0 | 0.00 | 0.00 | 0.00 | 42 | 1024.9 |
| 20260508070852 | 56 | 156 | 5.0 | 10.0 | 0.00 | 0.00 | 0.00 | 43 | 1024.9 |
| 20260508070331 | 56 | 173 | 5.0 | 10.0 | 0.00 | 0.00 | 0.00 | 45 | 1024.8 |
| 20260508065832 | 55 | 193 | 4.0 | 10.0 | 0.00 | 0.00 | 0.00 | 44 | 1024.7 |
| 20260508065401 | 55 | 192 | 6.0 | 10.0 | 0.00 | 0.00 | 0.00 | 44 | 1024.7 |
| 20260508064828 | 54 | 184 | 5.0 | 9.0 | 0.00 | 0.00 | 0.00 | 45 | 1024.6 |
| 20260508064329 | 54 | 150 | 5.0 | 10.0 | 0.00 | 0.00 | 0.00 | 45 | 1024.6 |
| 20260508063830 | 54 | 167 | 5.0 | 10.0 | 0.00 | 0.00 | 0.00 | 44 | 1024.5 |
| 20260508063350 | 53 | 157 | 5.0 | 11.0 | 0.00 | 0.00 | 0.00 | 47 | 1024.5 |
| 20260508062830 | 53 | 210 | 5.0 | 10.0 | 0.00 | 0.00 | 0.00 | 48 | 1024.4 |
| 20260508062330 | 53 | 207 | 5.0 | 7.0 | 0.00 | 0.00 | 0.00 | 48 | 1024.4 |
| 20260508061830 | 52 | 190 | 4.0 | 8.0 | 0.00 | 0.00 | 0.00 | 48 | 1024.4 |
| 20260508061330 | 52 | 150 | 4.0 | 10.0 | 0.00 | 0.00 | 0.00 | 48 | 1024.3 |
| 20260508060830 | 51 | 189 | 5.0 | 10.0 | 0.00 | 0.00 | 0.00 | 47 | 1024.3 |
| 20260508060331 | 51 | 173 | 3.0 | 6.0 | 0.00 | 0.00 | 0.00 | 50 | 1024.2 |
| 20260508055831 | 50 | 159 | 3.0 | 7.0 | 0.00 | 0.00 | 0.00 | 50 | 1024.1 |
| 20260508055333 | 50 | 152 | 2.0 | 9.0 | 0.00 | 0.00 | 0.00 | 51 | 1024.0 |
| 20260508054830 | 49 | 189 | 5.0 | 10.0 | 0.00 | 0.00 | 0.00 | 50 | 1024.1 |
| 20260508054332 | 49 | 187 | 4.0 | 11.0 | 0.00 | 0.00 | 0.00 | 52 | 1024.0 |
| 20260508053831 | 48 | 192 | 4.0 | 7.0 | 0.00 | 0.00 | 0.00 | 54 | 1024.0 |
| 20260508053327 | 48 | 191 | 3.0 | 6.0 | 0.00 | 0.00 | 0.00 | 56 | 1024.0 |
| 20260508052854 | 47 | 175 | 3.0 | 6.0 | 0.00 | 0.00 | 0.00 | 57 | 1023.9 |
| 20260508052341 | 47 | 189 | 3.0 | 9.0 | 0.00 | 0.00 | 0.00 | 56 | 1023.8 |
| 20260508051850 | 47 | 138 | 2.0 | 7.0 | 0.00 | 0.00 | 0.00 | 56 | 1023.8 |
| 20260508051357 | 47 | 164 | 4.0 | 8.0 | 0.00 | 0.00 | 0.00 | 56 | 1023.8 |
| 20260508050824 | 46 | 148 | 4.0 | 8.0 | 0.00 | 0.00 | 0.00 | 56 | 1023.7 |
| 20260508050325 | 46 | 134 | 2.0 | 6.0 | 0.00 | 0.00 | 0.00 | 57 | 1023.6 |
| 20260508045825 | 46 | 115 | 3.0 | 9.0 | 0.00 | 0.00 | 0.00 | 56 | 1023.6 |
| 20260508045333 | 46 | 180 | 3.0 | 9.0 | 0.00 | 0.00 | 0.00 | 56 | 1023.5 |
| 20260508044842 | 45 | 159 | 4.0 | 9.0 | 0.00 | 0.00 | 0.00 | 56 | 1023.4 |
| 20260508044329 | 45 | 149 | 4.0 | 8.0 | 0.00 | 0.00 | 0.00 | 56 | 1023.3 |
| 20260508043850 | 45 | 153 | 4.0 | 8.0 | 0.00 | 0.00 | 0.00 | 57 | 1023.3 |
| 20260508043330 | 44 | 149 | 3.0 | 7.0 | 0.00 | 0.00 | 0.00 | 58 | 1023.3 |
| 20260508042829 | 44 | 184 | 3.0 | 6.0 | 0.00 | 0.00 | 0.00 | 58 | 1023.2 |
| 20260508042330 | 43 | 180 | 2.0 | 8.0 | 0.00 | 0.00 | 0.00 | 60 | 1023.1 |
| 20260508041830 | 43 | 209 | 3.0 | 10.0 | 0.00 | 0.00 | 0.00 | 60 | 1023.2 |
| 20260508041329 | 42 | 196 | 5.0 | 10.0 | 0.00 | 0.00 | 0.00 | 61 | 1023.2 |
| 20260508040831 | 42 | 178 | 3.0 | 7.0 | 0.00 | 0.00 | 0.00 | 62 | 1023.3 |
| 20260508040331 | 41 | 199 | 5.0 | 9.0 | 0.00 | 0.00 | 0.00 | 62 | 1023.3 |
| 20260508035852 | 40 | 194 | 4.0 | 6.0 | 0.00 | 0.00 | 0.00 | 64 | 1023.3 |
| 20260508035331 | 39 | 202 | 2.0 | 6.0 | 0.00 | 0.00 | 0.00 | 66 | 1023.3 |
| 20260508034832 | 38 | 141 | 2.0 | 5.0 | 0.00 | 0.00 | 0.00 | 68 | 1023.3 |
| 20260508034352 | 37 | 133 | 2.0 | 4.0 | 0.00 | 0.00 | 0.00 | 69 | 1023.4 |
| 20260508033832 | 37 | 215 | 0.0 | 3.0 | 0.00 | 0.00 | 0.00 | 71 | 1023.3 |
| 20260508033401 | 37 | 245 | 0.0 | 1.0 | 0.00 | 0.00 | 0.00 | 70 | 1023.3 |
| 20260508032828 | 38 | 245 | 0.0 | 1.0 | 0.00 | 0.00 | 0.00 | 69 | 1023.3 |
| 20260508032330 | 38 | 245 | 0.0 | 1.0 | 0.00 | 0.00 | 0.00 | 68 | 1023.3 |
| 20260508031831 | 39 | 245 | 0.0 | 2.0 | 0.00 | 0.00 | 0.00 | 65 | 1023.3 |
| 20260508031332 | 39 | 229 | 1.0 | 2.0 | 0.00 | 0.00 | 0.00 | 65 | 1023.2 |
| 20260508030831 | 39 | 221 | 0.0 | 4.0 | 0.00 | 0.00 | 0.00 | 61 | 1023.1 |
| 20260508030331 | 39 | 195 | 0.0 | 6.0 | 0.00 | 0.00 | 0.00 | 61 | 1023.1 |
| 20260508025900 | 39 | 178 | 0.0 | 7.0 | 0.00 | 0.00 | 0.00 | 61 | 1023.1 |
| 20260508025328 | 39 | 200 | 2.0 | 6.0 | 0.00 | 0.00 | 0.00 | 61 | 1023.0 |
| 20260508024828 | 39 | 153 | 3.0 | 6.0 | 0.00 | 0.00 | 0.00 | 62 | 1023.0 |
| 20260508024330 | 39 | 178 | 2.0 | 4.0 | 0.00 | 0.00 | 0.00 | 62 | 1022.9 |
| 20260508023831 | 39 | 146 | 1.0 | 4.0 | 0.00 | 0.00 | 0.00 | 63 | 1022.8 |
| 20260508023330 | 39 | 134 | 2.0 | 5.0 | 0.00 | 0.00 | 0.00 | 62 | 1022.8 |
| 20260508022826 | 39 | 153 | 1.0 | 3.0 | 0.00 | 0.00 | 0.00 | 62 | 1022.8 |
| 20260508022347 | 39 | 100 | 1.0 | 3.0 | 0.00 | 0.00 | 0.00 | 62 | 1022.8 |
| 20260508021827 | 39 | 190 | 1.0 | 6.0 | 0.00 | 0.00 | 0.00 | 60 | 1022.7 |
| 20260508021327 | 40 | 126 | 1.0 | 6.0 | 0.00 | 0.00 | 0.00 | 60 | 1022.7 |
| 20260508020857 | 40 | 179 | 1.0 | 5.0 | 0.00 | 0.00 | 0.00 | 60 | 1022.6 |
| 20260508020324 | 40 | 182 | 3.0 | 6.0 | 0.00 | 0.00 | 0.00 | 59 | 1022.6 |
| 20260508015825 | 40 | 202 | 2.0 | 9.0 | 0.00 | 0.00 | 0.00 | 59 | 1022.6 |
| 20260508015346 | 40 | 239 | 4.0 | 9.0 | 0.00 | 0.00 | 0.00 | 59 | 1022.5 |
| 20260508014825 | 40 | 198 | 3.0 | 6.0 | 0.00 | 0.00 | 0.00 | 59 | 1022.4 |
| 20260508014326 | 40 | 184 | 1.0 | 8.0 | 0.00 | 0.00 | 0.00 | 60 | 1022.4 |
| 20260508013835 | 40 | 101 | 2.0 | 8.0 | 0.00 | 0.00 | 0.00 | 60 | 1022.4 |
| 20260508013324 | 40 | 146 | 1.0 | 8.0 | 0.00 | 0.00 | 0.00 | 60 | 1022.4 |
| 20260508012845 | 40 | 178 | 1.0 | 4.0 | 0.00 | 0.00 | 0.00 | 60 | 1022.3 |
| 20260508012325 | 40 | 171 | 2.0 | 6.0 | 0.00 | 0.00 | 0.00 | 60 | 1022.3 |
| 20260508011825 | 40 | 149 | 1.0 | 5.0 | 0.00 | 0.00 | 0.00 | 60 | 1022.2 |
| 20260508011326 | 40 | 170 | 1.0 | 5.0 | 0.00 | 0.00 | 0.00 | 60 | 1022.1 |
| 20260508010826 | 40 | 171 | 1.0 | 5.0 | 0.00 | 0.00 | 0.00 | 61 | 1022.1 |
| 20260508010326 | 41 | 138 | 2.0 | 5.0 | 0.00 | 0.00 | 0.00 | 60 | 1022.0 |
| 20260508005827 | 41 | 192 | 2.0 | 7.0 | 0.00 | 0.00 | 0.00 | 59 | 1021.9 |
| 20260508005336 | 41 | 182 | 1.0 | 7.0 | 0.00 | 0.00 | 0.00 | 59 | 1021.9 |
| 20260508004826 | 41 | 146 | 3.0 | 7.0 | 0.00 | 0.00 | 0.00 | 59 | 1021.9 |
| 20260508004326 | 41 | 138 | 3.0 | 7.0 | 0.00 | 0.00 | 0.00 | 58 | 1021.8 |
| 20260508003826 | 41 | 194 | 2.0 | 5.0 | 0.00 | 0.00 | 0.00 | 58 | 1021.8 |
| 20260508003334 | 41 | 169 | 2.0 | 7.0 | 0.00 | 0.00 | 0.00 | 58 | 1021.7 |
| 20260508002842 | 41 | 172 | 4.0 | 7.0 | 0.00 | 0.00 | 0.00 | 58 | 1021.7 |
| 20260508002329 | 41 | 129 | 4.0 | 7.0 | 0.00 | 0.00 | 0.00 | 59 | 1021.6 |
| 20260508001849 | 41 | 176 | 3.0 | 6.0 | 0.00 | 0.00 | 0.00 | 59 | 1021.6 |
| 20260508001330 | 41 | 169 | 2.0 | 6.0 | 0.00 | 0.00 | 0.00 | 59 | 1021.5 |
| 20260508000850 | 41 | 167 | 3.0 | 6.0 | 0.00 | 0.00 | 0.00 | 59 | 1021.5 |
| 20260508000350 | 41 | 142 | 1.0 | 9.0 | 0.00 | 0.00 | 0.00 | 59 | 1021.4 |
| 20260507235829 | 41 | 84 | 2.0 | 9.0 | 0.00 | 0.00 | 0.00 | 60 | 1021.4 |
| 20260507235330 | 42 | 146 | 2.0 | 5.0 | 0.00 | 0.00 | 0.00 | 58 | 1021.4 |
| 20260507234830 | 42 | 155 | 2.0 | 3.0 | 0.00 | 0.00 | 0.00 | 58 | 1021.3 |
| 20260507234331 | 42 | 184 | 2.0 | 8.0 | 0.00 | 0.00 | 0.00 | 58 | 1021.2 |
| 20260507233831 | 42 | 160 | 3.0 | 8.0 | 0.00 | 0.00 | 0.00 | 57 | 1021.1 |
| 20260507233351 | 42 | 153 | 3.0 | 6.0 | 0.00 | 0.00 | 0.00 | 57 | 1021.1 |
| 20260507232830 | 42 | 199 | 4.0 | 7.0 | 0.00 | 0.00 | 0.00 | 57 | 1021.0 |
| 20260507232330 | 42 | 176 | 3.0 | 8.0 | 0.00 | 0.00 | 0.00 | 57 | 1020.9 |
| 20260507231831 | 42 | 184 | 3.0 | 8.0 | 0.00 | 0.00 | 0.00 | 57 | 1020.9 |
| 20260507231340 | 42 | 167 | 3.0 | 6.0 | 0.00 | 0.00 | 0.00 | 56 | 1021.0 |
| 20260507230829 | 42 | 145 | 3.0 | 8.0 | 0.00 | 0.00 | 0.00 | 56 | 1020.9 |
| 20260507230350 | 43 | 140 | 3.0 | 7.0 | 0.00 | 0.00 | 0.00 | 56 | 1020.9 |
| 20260507225829 | 43 | 167 | 4.0 | 8.0 | 0.00 | 0.00 | 0.00 | 56 | 1020.8 |
| 20260507225329 | 43 | 180 | 3.0 | 9.0 | 0.00 | 0.00 | 0.00 | 56 | 1020.8 |
| 20260507224830 | 43 | 148 | 4.0 | 9.0 | 0.00 | 0.00 | 0.00 | 55 | 1020.8 |
| 20260507224330 | 43 | 187 | 4.0 | 6.0 | 0.00 | 0.00 | 0.00 | 56 | 1020.7 |
| 20260507223830 | 43 | 157 | 4.0 | 8.0 | 0.00 | 0.00 | 0.00 | 55 | 1020.7 |
| 20260507223351 | 43 | 188 | 3.0 | 8.0 | 0.00 | 0.00 | 0.00 | 55 | 1020.7 |
| 20260507222830 | 43 | 146 | 3.0 | 6.0 | 0.00 | 0.00 | 0.00 | 55 | 1020.6 |
| 20260507222351 | 43 | 186 | 3.0 | 11.0 | 0.00 | 0.00 | 0.00 | 55 | 1020.6 |
| 20260507221826 | 43 | 152 | 3.0 | 11.0 | 0.00 | 0.00 | 0.00 | 54 | 1020.6 |
| 20260507221326 | 44 | 151 | 3.0 | 8.0 | 0.00 | 0.00 | 0.00 | 54 | 1020.5 |
| 20260507220827 | 43 | 166 | 3.0 | 7.0 | 0.00 | 0.00 | 0.00 | 54 | 1020.5 |
| 20260507220327 | 43 | 165 | 2.0 | 8.0 | 0.00 | 0.00 | 0.00 | 54 | 1020.4 |
| 20260507215827 | 43 | 166 | 3.0 | 8.0 | 0.00 | 0.00 | 0.00 | 55 | 1020.4 |
| 20260507215348 | 44 | 163 | 2.0 | 6.0 | 0.00 | 0.00 | 0.00 | 54 | 1020.4 |
| 20260507214847 | 43 | 156 | 2.0 | 5.0 | 0.00 | 0.00 | 0.00 | 54 | 1020.4 |
| 20260507214335 | 43 | 169 | 2.0 | 4.0 | 0.00 | 0.00 | 0.00 | 54 | 1020.3 |
| 20260507213824 | 43 | 171 | 2.0 | 4.0 | 0.00 | 0.00 | 0.00 | 54 | 1020.3 |
| 20260507213325 | 43 | 172 | 2.0 | 4.0 | 0.00 | 0.00 | 0.00 | 55 | 1020.3 |
| 20260507212833 | 43 | 134 | 2.0 | 4.0 | 0.00 | 0.00 | 0.00 | 56 | 1020.2 |
| 20260507212402 | 44 | 180 | 2.0 | 4.0 | 0.00 | 0.00 | 0.00 | 58 | 1020.1 |
| 20260507211850 | 44 | 154 | 2.0 | 6.0 | 0.00 | 0.00 | 0.00 | 58 | 1020.0 |
| 20260507211356 | 44 | 115 | 1.0 | 6.0 | 0.00 | 0.00 | 0.00 | 56 | 1019.9 |
| 20260507210845 | 44 | 146 | 2.0 | 8.0 | 0.00 | 0.00 | 0.00 | 57 | 1019.9 |
| 20260507210330 | 44 | 157 | 2.0 | 8.0 | 0.00 | 0.00 | 0.00 | 55 | 1019.8 |
| 20260507205857 | 44 | 160 | 1.0 | 6.0 | 0.00 | 0.00 | 0.00 | 55 | 1019.7 |
| 20260507205324 | 43 | 154 | 1.0 | 5.0 | 0.00 | 0.00 | 0.00 | 58 | 1019.6 |
| 20260507204852 | 43 | 129 | 2.0 | 4.0 | 0.00 | 0.00 | 0.00 | 58 | 1019.6 |
| 20260507204351 | 43 | 142 | 1.0 | 3.0 | 0.00 | 0.00 | 0.00 | 64 | 1019.6 |
| 20260507203839 | 43 | 142 | 2.0 | 3.0 | 0.00 | 0.00 | 0.00 | 64 | 1019.6 |
| 20260507203329 | 44 | 125 | 1.0 | 3.0 | 0.00 | 0.00 | 0.00 | 64 | 1019.5 |
| 20260507202850 | 44 | 125 | 2.0 | 3.0 | 0.00 | 0.00 | 0.00 | 61 | 1019.6 |
| 20260507202330 | 45 | 125 | 2.0 | 3.0 | 0.00 | 0.00 | 0.00 | 62 | 1019.5 |
| 20260507201830 | 47 | 125 | 1.0 | 2.0 | 0.00 | 0.00 | 0.00 | 59 | 1019.5 |
| 20260507201331 | 47 | 125 | 1.0 | 4.0 | 0.00 | 0.00 | 0.00 | 55 | 1019.4 |
| 20260507200831 | 48 | 121 | 2.0 | 4.0 | 0.00 | 0.00 | 0.00 | 52 | 1019.3 |
| 20260507200400 | 48 | 169 | 2.0 | 5.0 | 0.00 | 0.00 | 0.00 | 51 | 1019.1 |
| 20260507195828 | 49 | 150 | 2.0 | 5.0 | 0.00 | 0.00 | 0.00 | 50 | 1019.0 |
| 20260507195329 | 49 | 188 | 1.0 | 5.0 | 0.00 | 0.00 | 0.00 | 48 | 1019.0 |
| 20260507194829 | 49 | 193 | 2.0 | 5.0 | 0.00 | 0.00 | 0.00 | 47 | 1018.9 |
| 20260507194350 | 49 | 188 | 2.0 | 6.0 | 0.00 | 0.00 | 0.00 | 49 | 1018.9 |
| 20260507193830 | 50 | 206 | 2.0 | 7.0 | 0.00 | 0.00 | 0.00 | 49 | 1018.8 |
| 20260507193331 | 50 | 171 | 2.0 | 4.0 | 0.00 | 0.00 | 0.00 | 48 | 1018.7 |
| 20260507192831 | 50 | 155 | 3.0 | 8.0 | 0.00 | 0.00 | 0.00 | 47 | 1018.6 |
| 20260507192352 | 51 | 144 | 2.0 | 5.0 | 0.00 | 0.00 | 0.00 | 47 | 1018.5 |
| 20260507191839 | 51 | 183 | 2.0 | 5.0 | 0.00 | 0.00 | 0.00 | 47 | 1018.4 |
| 20260507191328 | 52 | 186 | 1.0 | 5.0 | 0.00 | 0.00 | 0.00 | 47 | 1018.3 |
| 20260507190828 | 53 | 186 | 2.0 | 5.0 | 0.00 | 0.00 | 0.00 | 44 | 1018.3 |
| 20260507190328 | 53 | 199 | 2.0 | 6.0 | 0.00 | 0.00 | 0.00 | 42 | 1018.1 |
| 20260507185829 | 53 | 192 | 2.0 | 7.0 | 0.00 | 0.00 | 0.00 | 42 | 1018.1 |
| 20260507185329 | 54 | 197 | 2.0 | 9.0 | 0.00 | 0.00 | 0.00 | 41 | 1018.0 |
| 20260507184830 | 54 | 212 | 4.0 | 9.0 | 0.00 | 0.00 | 0.00 | 41 | 1017.9 |
| 20260507184330 | 54 | 165 | 4.0 | 9.0 | 0.00 | 0.00 | 0.00 | 42 | 1017.9 |
| 20260507183830 | 55 | 183 | 3.0 | 8.0 | 0.00 | 0.00 | 0.00 | 42 | 1017.8 |
| 20260507183330 | 55 | 218 | 3.0 | 6.0 | 0.00 | 0.00 | 0.00 | 41 | 1017.7 |
| 20260507182826 | 56 | 175 | 3.0 | 7.0 | 0.00 | 0.00 | 0.00 | 40 | 1017.7 |
| 20260507182353 | 56 | 159 | 3.0 | 7.0 | 0.00 | 0.00 | 0.00 | 41 | 1017.6 |
| 20260507181840 | 56 | 174 | 3.0 | 7.0 | 0.00 | 0.00 | 0.00 | 41 | 1017.5 |
| 20260507181325 | 57 | 144 | 3.0 | 6.0 | 0.00 | 0.00 | 0.00 | 42 | 1017.5 |
| 20260507180825 | 57 | 184 | 4.0 | 7.0 | 0.00 | 0.00 | 0.00 | 43 | 1017.4 |
| 20260507180334 | 57 | 171 | 1.0 | 2.0 | 0.00 | 0.00 | 0.00 | 40 | 1017.3 |
| 20260507175824 | 58 | 161 | 0.0 | 3.0 | 0.00 | 0.00 | 0.00 | 39 | 1017.3 |
| 20260507175331 | 58 | 170 | 2.0 | 4.0 | 0.00 | 0.00 | 0.00 | 40 | 1017.2 |
| 20260507174857 | 58 | 170 | 2.0 | 4.0 | 0.00 | 0.00 | 0.00 | 39 | 1017.2 |
| 20260507174403 | 58 | 163 | 1.0 | 5.0 | 0.00 | 0.00 | 0.00 | 40 | 1017.1 |
| 20260507173829 | 58 | 157 | 2.0 | 4.0 | 0.00 | 0.00 | 0.00 | 39 | 1017.1 |
| 20260507173336 | 57 | 157 | 2.0 | 4.0 | 0.00 | 0.00 | 0.00 | 38 | 1017.1 |
| 20260507172826 | 57 | 130 | 2.0 | 3.0 | 0.00 | 0.00 | 0.00 | 42 | 1017.0 |
| 20260507172326 | 57 | 130 | 1.0 | 3.0 | 0.00 | 0.00 | 0.00 | 41 | 1017.0 |
| 20260507171846 | 57 | 129 | 1.0 | 3.0 | 0.00 | 0.00 | 0.00 | 41 | 1016.9 |
| 20260507171326 | 57 | 103 | 1.0 | 2.0 | 0.00 | 0.00 | 0.00 | 44 | 1016.8 |
| 20260507170826 | 57 | 103 | 1.0 | 3.0 | 0.00 | 0.00 | 0.00 | 43 | 1016.8 |
| 20260507170326 | 58 | 103 | 1.0 | 6.0 | 0.00 | 0.00 | 0.00 | 42 | 1016.8 |
| 20260507165835 | 58 | 103 | 3.0 | 6.0 | 0.00 | 0.00 | 0.00 | 40 | 1016.7 |
| 20260507165324 | 58 | 113 | 1.0 | 7.0 | 0.00 | 0.00 | 0.00 | 42 | 1016.7 |
| 20260507164826 | 58 | 83 | 3.0 | 7.0 | 0.00 | 0.00 | 0.00 | 40 | 1016.7 |
| 20260507164325 | 59 | 118 | 4.0 | 8.0 | 0.00 | 0.00 | 0.00 | 39 | 1016.6 |
| 20260507163826 | 59 | 102 | 2.0 | 9.0 | 0.00 | 0.00 | 0.00 | 41 | 1016.6 |
| 20260507163327 | 59 | 123 | 4.0 | 9.0 | 0.00 | 0.00 | 0.00 | 40 | 1016.5 |
| 20260507162827 | 59 | 109 | 5.0 | 9.0 | 0.00 | 0.00 | 0.00 | 40 | 1016.4 |
| 20260507162327 | 59 | 145 | 4.0 | 9.0 | 0.00 | 0.00 | 0.00 | 39 | 1016.5 |
| 20260507161828 | 59 | 115 | 4.0 | 10.0 | 0.00 | 0.00 | 0.00 | 40 | 1016.5 |
| 20260507161330 | 59 | 75 | 3.0 | 8.0 | 0.00 | 0.00 | 0.00 | 41 | 1016.4 |
| 20260507160830 | 59 | 145 | 3.0 | 10.0 | 0.00 | 0.00 | 0.00 | 40 | 1016.4 |
| 20260507160330 | 59 | 156 | 4.0 | 8.0 | 0.00 | 0.00 | 0.00 | 41 | 1016.4 |
| 20260507155850 | 59 | 87 | 4.0 | 8.0 | 0.00 | 0.00 | 0.00 | 43 | 1016.4 |
| 20260507155329 | 58 | 120 | 1.0 | 5.0 | 0.00 | 0.00 | 0.00 | 40 | 1016.4 |
| 20260507154830 | 58 | 153 | 0.0 | 5.0 | 0.00 | 0.00 | 0.00 | 41 | 1016.3 |
| 20260507154330 | 58 | 132 | 1.0 | 7.0 | 0.00 | 0.00 | 0.00 | 42 | 1016.3 |
| 20260507153831 | 59 | 132 | 2.0 | 7.0 | 0.00 | 0.00 | 0.00 | 43 | 1016.3 |
| 20260507153333 | 59 | 182 | 2.0 | 8.0 | 0.00 | 0.00 | 0.00 | 40 | 1016.3 |
| 20260507152900 | 58 | 104 | 2.0 | 6.0 | 0.00 | 0.00 | 0.00 | 42 | 1016.3 |
| 20260507152328 | 58 | 94 | 3.0 | 4.0 | 0.00 | 0.00 | 0.00 | 46 | 1016.3 |
| 20260507151849 | 58 | 94 | 1.0 | 6.0 | 0.00 | 0.00 | 0.00 | 44 | 1016.3 |
| 20260507151328 | 58 | 94 | 2.0 | 6.0 | 0.00 | 0.00 | 0.00 | 47 | 1016.3 |
| 20260507150828 | 58 | 56 | 3.0 | 5.0 | 0.00 | 0.00 | 0.00 | 45 | 1016.3 |
| 20260507150328 | 59 | 53 | 3.0 | 7.0 | 0.00 | 0.00 | 0.00 | 42 | 1016.2 |
| 20260507145856 | 59 | 79 | 3.0 | 7.0 | 0.00 | 0.00 | 0.00 | 43 | 1016.2 |
| 20260507145324 | 59 | 105 | 4.0 | 7.0 | 0.00 | 0.00 | 0.00 | 41 | 1016.2 |
| 20260507144852 | 60 | 88 | 4.0 | 9.0 | 0.00 | 0.00 | 0.00 | 41 | 1016.2 |
| 20260507144351 | 60 | 106 | 5.0 | 10.0 | 0.00 | 0.00 | 0.00 | 42 | 1016.1 |
| 20260507143830 | 60 | 133 | 6.0 | 10.0 | 0.00 | 0.00 | 0.00 | 42 | 1016.1 |
| 20260507143332 | 60 | 96 | 3.0 | 10.0 | 0.00 | 0.00 | 0.00 | 43 | 1016.1 |
| 20260507142839 | 60 | 65 | 5.0 | 10.0 | 0.00 | 0.00 | 0.00 | 42 | 1016.1 |
| 20260507142328 | 60 | 96 | 6.0 | 10.0 | 0.00 | 0.00 | 0.00 | 43 | 1016.0 |
| 20260507141829 | 59 | 156 | 3.0 | 9.0 | 0.00 | 0.00 | 0.00 | 46 | 1016.0 |
| 20260507141349 | 59 | 126 | 5.0 | 9.0 | 0.00 | 0.00 | 0.00 | 44 | 1016.0 |
| 20260507140849 | 59 | 111 | 5.0 | 9.0 | 0.00 | 0.00 | 0.00 | 44 | 1016.0 |
| 20260507140328 | 59 | 123 | 4.0 | 10.0 | 0.00 | 0.00 | 0.00 | 44 | 1015.9 |
| 20260507135828 | 60 | 136 | 5.0 | 10.0 | 0.00 | 0.00 | 0.00 | 42 | 1015.9 |